Weather History for Whidbey Island, WA

Change the Weather History Date:

Thursday, March 14, 2013

  Actual Average Record
Temperature  
Mean Temperature 50 °F -  
Max Temperature 54 °F 48 °F 57 °F (2003)
Min Temperature 48 °F 37 °F 31 °F (1997)
Degree Days  
Heating Degree Days 14    
Moisture  
Dew Point 45 °F    
Average Humidity 80    
Maximum Humidity 90    
Minimum Humidity 67    
Precipitation  
Precipitation 0.01 in - - ()
Sea Level Pressure  
Sea Level Pressure 30.05 in    
Wind  
Wind Speed 10 mph (SE)    
Max Wind Speed 23 mph    
Max Gust Speed 29 mph    
Visibility 10 miles    
Events Rain    
Averages and records for this station are not official NWS values.
T = Trace of Precipitation, MM = Missing Value Source: NWS Daily Summary

Daily Weather History Graph

Daily Weather History Graph

Search for Another Location

Airport:

Trip Planner

Search our weather history database for the weather conditions in past years. The results will help you decide how hot, cold, wet, or windy it might be!

Date:

Astronomy

Mar. 14, 2013 Rise Set
Actual Time 7:25 AM PDT 7:15 PM PDT
Civil Twilight 6:54 AM PDT 7:46 PM PDT
Nautical Twilight 6:17 AM PDT 8:22 PM PDT
Astronomical Twilight 5:40 AM PDT 8:59 PM PDT
Moon 8:25 AM PDT (3/14) 10:56 PM PDT (3/14)
Length of Visible Light 12h 52m
Length of Day
11h 49m
Waxing Crescent, 9% of the Moon is Illuminated
Mar 14
Waxing Crescent
Mar 19
First Quarter
Mar 27
Full
Apr 2
Last Quarter
Apr 10
New

Hourly Weather History & Observations

Time (PDT) Temp. Dew Point Humidity Pressure Visibility Wind Dir Wind Speed Gust Speed Precip Events Conditions
12:56 AM 52.0 °F 46.9 °F 83% 30.06 in 10.0 mi ESE 8.1 mph - N/A   Overcast
1:56 AM 52.0 °F 46.9 °F 83% 30.05 in 10.0 mi ESE 5.8 mph - N/A   Overcast
2:56 AM 51.1 °F 46.9 °F 86% 30.04 in 10.0 mi South 3.5 mph - N/A   Overcast
3:56 AM 52.0 °F 46.9 °F 83% 30.04 in 10.0 mi SE 9.2 mph - N/A   Overcast
4:56 AM 50.0 °F 46.0 °F 86% 30.03 in 10.0 mi Calm Calm - N/A   Overcast
5:56 AM 50.0 °F 46.9 °F 89% 30.04 in 10.0 mi SE 4.6 mph - N/A   Overcast
6:56 AM 48.9 °F 46.0 °F 90% 30.02 in 9.0 mi ESE 8.1 mph - N/A   Overcast
7:56 AM 50.0 °F 46.0 °F 86% 30.02 in 10.0 mi SSE 8.1 mph - N/A   Overcast
8:56 AM 50.0 °F 45.0 °F 83% 30.04 in 10.0 mi SE 11.5 mph - N/A   Overcast
9:56 AM 51.1 °F 44.1 °F 77% 30.06 in 10.0 mi SSE 15.0 mph - N/A   Overcast
10:56 AM 50.0 °F 44.1 °F 80% 30.05 in 10.0 mi SE 15.0 mph 21.9 mph N/A   Overcast
11:56 AM 51.1 °F 45.0 °F 80% 30.05 in 10.0 mi SE 6.9 mph - N/A   Overcast
12:56 PM 53.1 °F 45.0 °F 74% 30.05 in 10.0 mi SSE 9.2 mph - N/A   Overcast
1:56 PM 53.1 °F 44.1 °F 71% 30.03 in 9.0 mi SSE 20.7 mph 27.6 mph N/A   Overcast
2:56 PM 52.0 °F 44.1 °F 74% 30.02 in 10.0 mi SE 17.3 mph 24.2 mph N/A   Overcast
3:44 PM 51.8 °F 42.8 °F 71% 30.02 in 10.0 mi SE 13.8 mph 20.7 mph 0.00 in Rain Light Rain
3:56 PM 52.0 °F 43.0 °F 71% 30.03 in 10.0 mi SE 15.0 mph 21.9 mph 0.00 in Rain Light Rain
4:35 PM 53.6 °F 42.8 °F 67% 30.02 in 10.0 mi SE 11.5 mph - 0.00 in   Overcast
4:56 PM 52.0 °F 42.1 °F 69% 30.03 in 10.0 mi SE 16.1 mph 20.7 mph 0.00 in   Overcast
5:40 PM 51.8 °F 42.8 °F 71% 30.02 in 10.0 mi SSE 17.3 mph 26.5 mph 0.00 in Rain Light Rain
5:56 PM 52.0 °F 43.0 °F 71% 30.04 in 10.0 mi SSE 17.3 mph - 0.00 in Rain Light Rain
6:56 PM 48.9 °F 44.1 °F 83% 30.06 in 10.0 mi SSE 8.1 mph - 0.01 in Rain Light Rain
7:32 PM 48.2 °F 44.6 °F 87% 30.03 in 10.0 mi SE 16.1 mph 24.2 mph 0.00 in Rain Light Rain
7:56 PM 48.9 °F 44.1 °F 83% 30.06 in 10.0 mi SSE 16.1 mph - 0.00 in   Overcast
8:43 PM 50.0 °F 44.6 °F 82% 30.06 in 10.0 mi SSE 12.7 mph - N/A   Overcast
8:56 PM 50.0 °F 44.1 °F 80% 30.08 in 10.0 mi SSE 18.4 mph 23.0 mph N/A   Overcast
9:27 PM 50.0 °F 44.6 °F 82% 30.07 in 10.0 mi SSE 16.1 mph - 0.00 in Rain Light Rain
9:56 PM 50.0 °F 45.0 °F 83% 30.10 in 10.0 mi SE 16.1 mph 21.9 mph 0.00 in Rain Light Rain
10:56 PM 48.9 °F 45.0 °F 86% 30.12 in 10.0 mi SSE 23.0 mph 28.8 mph 0.00 in Rain Light Rain
11:56 PM 48.9 °F 45.0 °F 86% 30.14 in 10.0 mi SE 20.7 mph 25.3 mph 0.00 in   Overcast